Group_ship,Cruise,JD_GMT,Date_DDMMYYYY,TIME_HH:MM:SS,Lat_dec_degree,Long_dec_degree,xCO2eq_ppm,xCO2a_ppm,Pres_Equi_hPa,Pres_sealevel_hPa,EqTemp_C,SST(TSG)_C,Sal(TSG)_Permil,Water_flow_l/min,Gasflow_IR_ml/min,Temp_IR_C,Pres_IR_hPa,Ship_heading_true_degree,Ship_speed_knot,Wind_dir_rel_degree,Wind_speed_rel_m/s,fCO2W@SST_uatm,Qcflag_water,fCO2a_uatm,Qcflag_air,dfCO2_uatm,Fluoro_ug/l,Wind_speed_true_m/s,Wind_dir_true_degree,Air_temp_C,Oxygen
AOML_Explorer,Ex0716E,105.973,15042007,23:21:40,25.989,-79.637,380.58,-9.00,1007.97,1005.10,26.41,26.64,36.162,1.661,102.004,32.550,1005.100,58.900,24.200,252.000,8.235,368.11,2,-9.00,9,-9.00,0.04,16.40,267.95,23.93,226.50
AOML_Explorer,Ex0716E,105.975,15042007,23:24:13,25.998,-79.620,380.56,-9.00,1007.86,1003.60,26.39,26.32,36.255,1.640,101.960,32.555,1003.600,59.400,24.200,262.000,12.868,363.63,2,-9.00,9,-9.00,0.06,18.29,284.06,23.47,225.91
AOML_Explorer,Ex0716E,105.977,15042007,23:26:46,26.006,-79.604,380.88,-9.00,1008.00,1004.40,26.38,26.16,36.255,1.616,101.711,32.559,1004.400,60.300,24.000,269.000,12.353,361.87,2,-9.00,9,-9.00,0.06,16.75,287.54,23.12,225.63
AOML_Explorer,Ex0716E,105.979,15042007,23:29:19,26.015,-79.588,381.07,-9.00,1008.19,1004.30,26.27,26.18,36.230,1.669,101.472,32.559,1004.300,60.700,23.800,269.000,11.838,364.10,2,-9.00,9,-9.00,0.05,16.36,286.69,23.12,225.78
AOML_Explorer,Ex0716E,105.980,15042007,23:31:52,26.023,-79.572,381.14,-9.00,1008.27,1004.50,26.05,26.22,36.218,1.630,101.622,32.560,1004.500,60.900,23.600,266.000,12.868,368.23,2,-9.00,9,-9.00,0.05,17.54,288.11,23.27,226.22
AOML_Explorer,Ex0716E,105.982,15042007,23:34:25,26.031,-79.556,379.57,-9.00,1008.44,1004.50,25.95,26.19,36.226,1.601,101.871,32.560,1004.500,61.400,23.600,258.000,11.838,367.80,2,-9.00,9,-9.00,0.04,18.04,281.99,23.22,226.56
AOML_Explorer,Ex0716E,105.984,15042007,23:36:58,26.039,-79.540,378.05,-9.00,1008.09,1004.30,25.95,26.16,36.215,1.621,101.873,32.560,1004.300,60.400,23.600,272.000,12.868,365.85,2,-9.00,9,-9.00,0.04,16.69,290.06,23.29,226.77
AOML_Explorer,Ex0716E,105.986,15042007,23:39:31,26.047,-79.524,377.72,-9.00,1008.48,1004.30,25.95,26.14,36.217,1.627,101.672,32.563,1004.300,61.000,23.500,271.000,10.809,365.23,2,-9.00,9,-9.00,0.04,15.48,284.97,23.31,226.88
AOML_Explorer,Ex0716E,105.988,15042007,23:42:04,26.055,-79.507,377.62,-9.00,1008.19,1004.30,25.93,26.12,36.218,1.618,101.774,32.565,1004.300,61.500,23.600,272.000,12.868,365.08,2,-9.00,9,-9.00,0.04,16.79,290.95,23.18,226.97
AOML_Explorer,Ex0716E,105.989,15042007,23:44:37,26.063,-79.491,377.52,-9.00,1008.99,1004.90,25.92,26.09,36.214,1.573,102.047,32.564,1004.900,61.300,23.500,265.000,11.323,365.14,2,-9.00,9,-9.00,0.04,16.81,283.74,23.19,227.24
AOML_Explorer,Ex0716E,105.991,15042007,23:47:10,26.071,-79.475,376.93,-9.00,1008.86,1004.60,25.90,26.05,36.219,1.577,102.105,32.566,1004.600,61.900,23.300,265.000,12.868,364.25,2,-9.00,9,-9.00,0.04,17.89,287.42,23.12,227.12
AOML_Explorer,Ex0716E,105.993,15042007,23:49:43,26.079,-79.459,376.37,-9.00,1009.00,1004.60,25.87,26.02,36.222,1.555,102.176,32.569,1004.600,62.300,23.300,250.000,11.323,363.60,2,-9.00,9,-9.00,0.05,18.86,277.03,23.07,227.25
AOML_Explorer,Ex0716E,105.995,15042007,23:52:16,26.087,-79.443,375.85,-9.00,1009.09,1005.00,25.84,26.00,36.217,1.605,101.895,32.570,1005.000,62.300,23.200,256.000,11.323,363.33,2,-9.00,9,-9.00,0.04,18.02,280.18,22.79,227.29
AOML_Explorer,Ex0716E,105.996,15042007,23:54:49,26.095,-79.427,375.46,-9.00,1009.11,1004.60,25.81,26.01,36.210,1.545,101.745,32.573,1004.600,61.000,23.100,276.000,12.868,363.64,2,-9.00,9,-9.00,0.04,16.37,291.84,22.75,227.34
AOML_Explorer,Ex0716E,105.998,15042007,23:57:22,26.103,-79.411,374.89,-9.00,1008.99,1004.50,25.79,26.01,36.218,1.558,101.851,32.574,1004.500,61.000,23.100,265.000,12.353,363.30,2,-9.00,9,-9.00,0.05,17.68,284.86,22.68,227.44
AOML_Explorer,Ex0716E,106.000,15042007,23:59:55,26.110,-79.395,374.76,-9.00,1009.28,1005.10,25.79,26.00,36.217,1.552,102.072,32.574,1005.100,62.100,23.100,265.000,10.294,363.15,2,-9.00,9,-9.00,0.05,16.27,280.93,22.74,227.69
AOML_Explorer,Ex0716E,106.015,16042007,0:21:40,26.173,-79.261,371.79,-9.00,1008.46,1005.70,25.74,26.02,36.205,1.652,101.681,32.619,1005.700,66.800,22.200,296.000,6.691,361.14,2,-9.00,9,-9.00,0.06,10.41,281.91,22.68,227.79
AOML_Explorer,Ex0716E,106.017,16042007,0:24:13,26.179,-79.245,372.56,-9.00,1009.15,1005.70,25.75,26.07,36.192,1.627,101.751,32.621,1005.700,70.600,22.100,255.000,9.265,362.60,2,-9.00,9,-9.00,0.06,16.42,283.57,22.85,227.96
AOML_Explorer,Ex0716E,106.019,16042007,0:26:46,26.184,-79.228,373.20,-9.00,1009.33,1006.60,25.77,26.12,36.184,1.601,101.346,32.622,1006.600,74.100,22.200,253.000,8.750,363.82,2,-9.00,9,-9.00,0.05,16.30,284.35,22.82,227.64
AOML_Explorer,Ex0716E,106.020,16042007,0:29:19,26.188,-79.212,373.75,-9.00,1009.45,1006.40,25.81,26.12,36.187,1.607,101.473,32.623,1006.400,79.300,22.100,237.000,6.691,363.77,2,-9.00,9,-9.00,0.06,15.97,280.02,22.93,227.73
AOML_Explorer,Ex0716E,106.022,16042007,0:31:52,26.191,-79.195,373.99,-9.00,1009.36,1006.30,25.85,26.15,36.176,1.571,101.411,32.622,1006.300,80.800,21.900,285.000,4.118,363.65,2,-9.00,9,-9.00,0.06,10.94,281.64,22.95,227.74
AOML_Explorer,Ex0716E,106.024,16042007,0:34:25,26.193,-79.178,374.56,-9.00,1009.43,1006.70,25.87,26.17,36.176,1.608,101.211,32.621,1006.700,81.100,21.800,272.000,5.147,364.29,2,-9.00,9,-9.00,0.05,12.21,285.81,22.92,227.86
AOML_Explorer,Ex0716E,106.026,16042007,0:36:58,26.196,-79.161,374.48,-9.00,1009.51,1006.80,25.87,26.16,36.177,1.592,101.519,32.617,1006.800,81.000,21.700,205.000,4.118,364.11,2,-9.00,9,-9.00,0.05,15.02,267.13,22.83,227.81
AOML_Explorer,Ex0716E,106.027,16042007,0:39:31,26.198,-79.144,374.53,-9.00,1009.62,1006.80,25.90,26.19,36.180,1.593,101.176,32.613,1006.800,81.300,21.600,257.000,5.662,364.10,2,-9.00,9,-9.00,0.05,13.65,284.78,22.84,227.57
AOML_Explorer,Ex0716E,106.029,16042007,0:42:04,26.201,-79.128,374.69,-9.00,1009.65,1006.90,25.92,26.20,36.187,1.576,101.443,32.613,1006.900,80.100,21.400,222.000,7.721,364.27,2,-9.00,9,-9.00,0.05,17.64,277.00,22.93,227.51
AOML_Explorer,Ex0716E,106.031,16042007,0:44:37,26.202,-79.111,375.05,-9.00,1009.77,1007.00,25.91,26.21,36.186,1.592,101.402,32.609,1007.000,86.900,21.800,235.000,6.176,364.83,2,-9.00,9,-9.00,0.05,15.69,285.45,22.91,227.47
AOML_Explorer,Ex0716E,106.033,16042007,0:47:10,26.203,-79.093,375.63,-9.00,1009.77,1007.00,25.93,26.10,36.238,1.624,101.464,32.606,1007.000,87.000,21.600,238.000,5.662,363.55,2,-9.00,9,-9.00,0.05,15.00,285.17,22.83,227.75
AOML_Explorer,Ex0716E,106.035,16042007,0:49:43,26.204,-79.077,376.27,-9.00,1009.80,1007.10,25.95,26.06,36.226,1.633,101.460,32.606,1007.100,88.100,21.500,235.000,4.118,363.19,2,-9.00,9,-9.00,0.05,13.91,282.10,22.93,228.02
AOML_Explorer,Ex0716E,106.036,16042007,0:52:16,26.204,-79.060,376.67,-9.00,1009.87,1007.20,25.94,25.98,36.238,1.596,101.634,32.604,1007.200,90.400,21.400,233.000,6.176,362.64,2,-9.00,9,-9.00,0.05,15.57,288.51,22.99,228.06
AOML_Explorer,Ex0716E,106.038,16042007,0:54:49,26.204,-79.043,376.38,-9.00,1009.83,1007.10,25.86,25.95,36.233,1.594,101.699,32.602,1007.100,89.900,21.400,254.000,6.176,363.13,2,-9.00,9,-9.00,0.06,14.10,294.48,22.87,227.82
AOML_Explorer,Ex0716E,106.040,16042007,0:57:22,26.204,-79.026,375.59,-9.00,1009.90,1007.00,25.82,25.95,36.234,1.594,101.504,32.603,1007.000,89.800,21.300,226.000,6.691,363.10,2,-9.00,9,-9.00,0.05,16.35,286.64,22.98,227.73
AOML_Explorer,Ex0716E,106.042,16042007,0:59:55,26.204,-79.009,374.45,-9.00,1009.84,1007.10,25.76,25.98,36.235,1.580,101.687,32.604,1007.100,90.500,21.400,243.000,6.176,363.25,2,-9.00,9,-9.00,0.05,14.90,291.51,23,227.88
AOML_Explorer,Ex0716E,106.057,16042007,1:21:40,26.198,-78.864,372.36,-9.00,1009.88,1007.20,25.79,26.03,36.184,1.569,101.517,32.664,1007.200,96.800,21.900,221.000,5.147,361.45,2,-9.00,9,-9.00,0.05,15.71,288.76,23.2,228.03
AOML_Explorer,Ex0716E,106.058,16042007,1:24:13,26.196,-78.847,372.70,-9.00,1009.89,1007.20,25.80,26.02,36.188,1.585,101.746,32.663,1007.200,98.800,22.100,219.000,5.662,361.59,2,-9.00,9,-9.00,0.04,16.28,290.27,23.06,228.09
AOML_Explorer,Ex0716E,106.060,16042007,1:26:46,26.194,-78.829,372.89,-9.00,1009.98,1007.30,25.80,26.01,36.193,1.580,101.896,32.663,1007.300,99.300,22.000,217.000,3.603,361.62,2,-9.00,9,-9.00,0.04,14.59,287.04,23.07,227.96
AOML_Explorer,Ex0716E,106.062,16042007,1:29:19,26.191,-78.812,373.12,-9.00,1009.76,1007.30,25.80,26.00,36.199,1.590,101.746,32.658,1007.300,98.800,22.200,229.000,5.662,361.73,2,-9.00,9,-9.00,0.04,15.92,293.80,23.2,228.08
AOML_Explorer,Ex0716E,106.064,16042007,1:31:52,26.189,-78.795,373.12,-9.00,1009.82,1007.30,25.79,25.99,36.208,1.577,101.697,32.655,1007.300,100.800,22.400,231.000,5.147,361.63,2,-9.00,9,-9.00,0.04,15.42,295.52,23.23,228.04
AOML_Explorer,Ex0716E,106.066,16042007,1:34:25,26.185,-78.778,373.14,-9.00,1009.86,1007.40,25.79,25.98,36.207,1.567,101.893,32.648,1007.400,104.300,22.700,166.000,4.118,361.53,2,-9.00,9,-9.00,0.05,15.61,279.92,23.14,227.89
AOML_Explorer,Ex0716E,106.067,16042007,1:36:58,26.181,-78.760,373.09,-9.00,1009.92,1007.40,25.78,25.98,36.199,1.594,101.857,32.645,1007.400,104.400,22.900,148.000,4.632,361.71,2,-9.00,9,-9.00,0.05,15.65,274.41,23.1,227.87
AOML_Explorer,Ex0716E,106.069,16042007,1:39:31,26.177,-78.743,373.12,-9.00,1009.89,1007.40,25.77,25.99,36.199,1.609,101.797,32.639,1007.400,104.000,22.900,168.000,5.662,362.00,2,-9.00,9,-9.00,0.05,17.19,279.01,23.14,227.84
AOML_Explorer,Ex0716E,106.071,16042007,1:42:04,26.173,-78.726,373.20,-9.00,1009.89,1007.30,25.76,25.98,36.205,1.583,101.690,32.638,1007.300,105.100,23.100,206.000,4.632,362.19,2,-9.00,9,-9.00,0.04,16.16,291.51,23.14,227.97
AOML_Explorer,Ex0716E,106.073,16042007,1:44:37,26.169,-78.708,373.09,-9.00,1009.86,1007.30,25.75,25.97,36.210,1.589,101.648,32.636,1007.300,105.400,23.100,205.000,4.118,361.94,2,-9.00,9,-9.00,0.05,15.72,291.26,23.12,228.01
AOML_Explorer,Ex0716E,106.074,16042007,1:47:10,26.163,-78.691,373.14,-9.00,1009.85,1007.30,25.76,26.00,36.200,1.608,101.663,32.631,1007.300,112.600,23.500,140.000,5.147,362.19,2,-9.00,9,-9.00,0.05,16.19,280.60,23.2,228.05
AOML_Explorer,Ex0716E,106.076,16042007,1:49:43,26.156,-78.675,373.32,-9.00,1009.93,1007.40,25.76,26.01,36.207,1.553,101.843,32.627,1007.400,117.500,23.800,150.000,5.662,362.65,2,-9.00,9,-9.00,0.04,17.19,287.15,23.22,228.09
AOML_Explorer,Ex0716E,106.078,16042007,1:52:16,26.149,-78.658,373.32,-9.00,1010.01,1007.50,25.76,25.98,36.220,1.607,102.023,32.621,1007.500,115.700,23.700,160.000,6.691,362.31,2,-9.00,9,-9.00,0.04,18.46,288.08,23.2,228.03
AOML_Explorer,Ex0716E,106.080,16042007,1:54:49,26.141,-78.641,373.27,-9.00,1010.06,1007.60,25.77,25.90,36.247,1.594,101.567,32.615,1007.600,115.100,23.800,115.000,3.088,360.85,2,-9.00,9,-9.00,0.05,13.63,283.61,23.22,228.28
AOML_Explorer,Ex0716E,106.082,16042007,1:57:22,26.134,-78.625,373.45,-9.00,1010.23,1007.60,25.78,25.88,36.256,1.565,101.735,32.614,1007.600,114.700,23.600,130.000,6.691,360.65,2,-9.00,9,-9.00,0.05,17.00,277.00,23.24,228.14
AOML_Explorer,Ex0716E,106.083,16042007,1:59:55,26.127,-78.608,373.86,-9.00,1010.25,1007.70,25.74,25.87,36.260,1.581,101.208,32.612,1007.700,114.000,23.600,140.000,4.118,361.53,2,-9.00,9,-9.00,0.04,15.36,284.16,23.33,228.09
AOML_Explorer,Ex0716E,106.098,16042007,2:21:40,26.085,-78.459,372.61,-9.00,1010.44,1007.80,25.73,25.97,36.247,1.552,101.269,32.656,1007.800,104.400,23.500,136.000,5.147,361.96,2,-9.00,9,-9.00,0.04,16.17,272.06,23.1,228.45
AOML_Explorer,Ex0716E,106.100,16042007,2:24:13,26.081,-78.441,373.16,-9.00,1010.39,1007.80,25.73,25.97,36.253,1.601,101.689,32.656,1007.800,104.300,23.400,147.000,3.088,362.53,2,-9.00,9,-9.00,0.04,14.74,278.01,23.18,228.38
AOML_Explorer,Ex0716E,106.102,16042007,2:26:46,26.077,-78.423,373.47,-9.00,1010.44,1007.80,25.74,25.97,36.248,1.537,101.086,32.656,1007.800,104.100,23.300,169.000,3.088,362.80,2,-9.00,9,-9.00,0.04,15.00,282.07,23.31,228.49
AOML_Explorer,Ex0716E,106.104,16042007,2:29:19,26.073,-78.406,373.68,-9.00,1010.43,1007.80,25.74,26.05,36.231,1.581,101.392,32.652,1007.800,103.900,23.200,162.000,6.691,363.97,2,-9.00,9,-9.00,0.04,18.37,277.82,23.4,228.52
AOML_Explorer,Ex0716E,106.105,16042007,2:31:52,26.069,-78.388,373.87,-9.00,1010.45,1007.80,25.74,26.08,36.229,1.579,101.066,32.646,1007.800,105.900,23.100,151.000,5.662,364.56,2,-9.00,9,-9.00,0.04,17.05,277.89,23.12,228.51
AOML_Explorer,Ex0716E,106.107,16042007,2:34:25,26.064,-78.371,373.95,-9.00,1010.46,1007.80,25.78,26.11,36.218,1.580,101.518,32.637,1007.800,106.800,22.900,142.000,4.632,364.58,2,-9.00,9,-9.00,0.04,15.73,276.74,23.18,228.40
AOML_Explorer,Ex0716E,106.109,16042007,2:36:58,26.060,-78.354,374.18,-9.00,1010.44,1007.80,25.82,26.15,36.208,1.552,101.421,32.631,1007.800,106.400,23.000,184.000,3.088,364.71,2,-9.00,9,-9.00,0.04,14.85,287.64,22.99,228.39
AOML_Explorer,Ex0716E,106.111,16042007,2:39:31,26.055,-78.336,374.51,-9.00,1010.43,1007.80,25.85,26.20,36.199,1.579,101.648,32.622,1007.800,106.800,23.000,183.000,4.632,365.40,2,-9.00,9,-9.00,0.04,16.42,288.49,22.97,228.11
AOML_Explorer,Ex0716E,106.113,16042007,2:42:04,26.050,-78.319,374.70,-9.00,1010.38,1007.80,25.87,26.22,36.197,1.542,101.684,32.616,1007.800,106.400,23.000,161.000,4.118,365.54,2,-9.00,9,-9.00,0.04,15.77,282.10,22.98,228.14
AOML_Explorer,Ex0716E,106.114,16042007,2:44:37,26.046,-78.302,374.87,-9.00,1010.49,1007.80,25.90,26.24,36.214,1.551,101.976,32.613,1007.800,106.900,22.900,161.000,3.603,365.46,2,-9.00,9,-9.00,0.04,15.25,282.90,23.03,227.98
AOML_Explorer,Ex0716E,106.116,16042007,2:47:10,26.041,-78.285,375.36,-9.00,1010.44,1007.80,25.93,26.18,36.222,1.547,101.069,32.608,1007.800,107.000,23.100,170.000,5.147,364.76,2,-9.00,9,-9.00,0.03,16.95,284.79,23.09,228.02
AOML_Explorer,Ex0716E,106.118,16042007,2:49:43,26.036,-78.267,375.78,-9.00,1010.48,1007.70,25.96,26.08,36.238,1.556,101.530,32.604,1007.700,107.000,23.000,162.000,4.632,363.16,2,-9.00,9,-9.00,0.04,16.30,282.19,22.86,227.96
AOML_Explorer,Ex0716E,106.120,16042007,2:52:16,26.031,-78.250,376.05,-9.00,1010.44,1007.80,25.96,26.01,36.237,1.555,101.115,32.599,1007.800,108.000,23.000,181.000,8.235,362.39,2,-9.00,9,-9.00,0.04,20.03,288.93,22.88,227.85
AOML_Explorer,Ex0716E,106.121,16042007,2:54:49,26.026,-78.233,376.07,-9.00,1010.45,1007.80,25.90,25.97,36.246,1.535,101.035,32.596,1007.800,107.600,23.000,181.000,6.176,362.83,2,-9.00,9,-9.00,0.04,17.94,288.23,22.76,227.97
AOML_Explorer,Ex0716E,106.123,16042007,2:57:22,26.021,-78.216,375.35,-9.00,1010.51,1007.90,25.82,25.86,36.303,1.535,102.035,32.592,1007.900,108.200,22.800,183.000,7.721,361.70,2,-9.00,9,-9.00,0.05,19.41,289.74,22.73,227.82
AOML_Explorer,Ex0716E,106.125,16042007,2:59:55,26.016,-78.199,374.50,-9.00,1010.53,1007.90,25.77,25.86,36.263,1.551,101.690,32.589,1007.900,107.900,22.700,188.000,6.176,361.65,2,-9.00,9,-9.00,0.05,17.78,291.21,22.82,227.91
AOML_Explorer,Ex0716E,106.140,16042007,3:21:40,25.969,-78.057,371.58,-9.00,1010.59,1008.00,25.69,26.03,36.239,1.555,102.299,32.631,1008.000,105.000,22.600,239.000,7.206,362.56,2,-9.00,9,-9.00,0.04,16.59,307.10,22.96,228.10
AOML_Explorer,Ex0716E,106.142,16042007,3:24:13,25.965,-78.040,372.28,-9.00,1010.65,1008.10,25.73,26.05,36.242,1.545,101.599,32.628,1008.100,105.200,22.600,188.000,5.662,362.96,2,-9.00,9,-9.00,0.04,17.23,287.51,22.85,228.18
AOML_Explorer,Ex0716E,106.144,16042007,3:26:46,25.961,-78.023,372.95,-9.00,1010.70,1008.10,25.76,26.06,36.241,1.529,101.633,32.623,1008.100,104.400,22.600,216.000,4.632,363.34,2,-9.00,9,-9.00,0.04,15.63,294.40,22.91,228.15
AOML_Explorer,Ex0716E,106.145,16042007,3:29:19,25.957,-78.005,373.52,-9.00,1010.76,1008.10,25.78,26.08,36.238,1.591,101.522,32.619,1008.100,105.000,22.600,203.000,5.662,363.80,2,-9.00,9,-9.00,0.04,16.99,292.39,23.11,228.16
AOML_Explorer,Ex0716E,106.147,16042007,3:31:52,25.953,-77.988,374.01,-9.00,1010.78,1008.20,25.80,26.08,36.240,1.592,101.349,32.612,1008.200,104.500,22.700,186.000,4.632,364.07,2,-9.00,9,-9.00,0.04,16.24,285.86,23,228.14
AOML_Explorer,Ex0716E,106.149,16042007,3:34:25,25.949,-77.971,374.45,-9.00,1010.76,1008.10,25.82,26.09,36.239,1.563,101.624,32.609,1008.100,105.100,22.700,215.000,6.691,364.42,2,-9.00,9,-9.00,0.04,17.57,297.80,23.11,228.15
AOML_Explorer,Ex0716E,106.151,16042007,3:36:58,25.945,-77.954,374.68,-9.00,1010.80,1008.10,25.82,26.10,36.242,1.565,101.763,32.607,1008.100,105.000,22.800,220.000,7.206,364.57,2,-9.00,9,-9.00,0.04,17.85,300.00,23.11,228.15
AOML_Explorer,Ex0716E,106.152,16042007,3:39:31,25.940,-77.937,374.98,-9.00,1010.82,1008.20,25.83,26.11,36.237,1.558,101.359,32.598,1008.200,104.700,22.700,226.000,6.691,364.87,2,-9.00,9,-9.00,0.04,17.03,301.00,23.12,227.97
AOML_Explorer,Ex0716E,106.154,16042007,3:42:04,25.936,-77.919,374.97,-9.00,1010.79,1008.20,25.84,26.10,36.243,1.571,100.964,32.593,1008.200,104.900,22.600,247.000,4.632,364.67,2,-9.00,9,-9.00,0.04,14.13,302.38,23.06,227.96
AOML_Explorer,Ex0716E,106.156,16042007,3:44:37,25.932,-77.902,375.20,-9.00,1010.83,1008.20,25.84,26.10,36.242,1.558,101.632,32.588,1008.200,104.900,22.700,211.000,4.632,364.79,2,-9.00,9,-9.00,0.04,15.83,293.46,22.97,227.84
AOML_Explorer,Ex0716E,106.158,16042007,3:47:10,25.928,-77.885,375.37,-9.00,1010.84,1008.20,25.85,26.09,36.241,1.570,101.653,32.586,1008.200,105.200,22.600,240.000,4.118,364.77,2,-9.00,9,-9.00,0.03,14.17,299.64,23.01,227.92
AOML_Explorer,Ex0716E,106.160,16042007,3:49:43,25.924,-77.868,375.55,-9.00,1010.88,1008.20,25.85,26.09,36.239,1.561,101.524,32.583,1008.200,104.900,22.600,235.000,4.118,365.01,2,-9.00,9,-9.00,0.04,14.41,298.51,23.17,227.83
AOML_Explorer,Ex0716E,106.161,16042007,3:52:16,25.920,-77.851,375.62,-9.00,1010.98,1008.30,25.84,26.09,36.239,1.560,100.839,32.581,1008.300,107.400,22.400,216.000,5.147,365.21,2,-9.00,9,-9.00,0.04,16.03,298.15,23.15,227.75
AOML_Explorer,Ex0716E,106.163,16042007,3:54:49,25.915,-77.834,375.67,-9.00,1011.05,1008.40,25.84,26.09,36.239,1.560,101.916,32.576,1008.400,107.300,22.400,198.000,6.176,365.25,2,-9.00,9,-9.00,0.04,17.52,293.24,22.97,227.73
AOML_Explorer,Ex0716E,106.165,16042007,3:57:22,25.910,-77.818,375.73,-9.00,1011.05,1008.40,25.84,26.09,36.240,1.540,101.309,32.571,1008.400,107.900,22.400,159.000,4.118,365.24,2,-9.00,9,-9.00,0.04,15.39,282.23,22.77,227.76
AOML_Explorer,Ex0716E,106.167,16042007,3:59:55,25.905,-77.801,375.76,-9.00,1011.07,1008.40,25.84,26.08,36.244,1.564,101.499,32.572,1008.400,107.800,22.300,193.000,4.632,365.10,2,-9.00,9,-9.00,0.04,16.04,291.00,22.91,227.61
AOML_Explorer,Ex0716E,106.182,16042007,4:21:40,25.870,-77.655,373.31,-9.00,1011.32,1008.70,25.65,25.82,36.315,1.517,101.706,32.614,1008.700,99.900,22.700,210.000,4.632,362.02,2,-9.00,9,-9.00,0.04,15.90,287.74,23.3,227.52
AOML_Explorer,Ex0716E,106.183,16042007,4:24:13,25.867,-77.638,373.24,-9.00,1011.29,1008.70,25.61,25.87,36.302,1.539,101.119,32.614,1008.700,99.900,22.600,225.000,4.632,363.28,2,-9.00,9,-9.00,0.04,15.36,291.79,23.19,227.61
AOML_Explorer,Ex0716E,106.185,16042007,4:26:46,25.864,-77.621,373.13,-9.00,1011.22,1008.60,25.61,25.84,36.313,1.538,101.628,32.608,1008.600,100.500,22.700,268.000,4.632,362.73,2,-9.00,9,-9.00,0.04,12.82,301.21,23.24,227.63
AOML_Explorer,Ex0716E,106.187,16042007,4:29:19,25.861,-77.603,373.13,-9.00,1011.25,1008.70,25.62,25.90,36.296,1.545,101.690,32.603,1008.700,100.300,22.700,208.000,6.691,363.42,2,-9.00,9,-9.00,0.04,17.94,289.41,23.36,227.70
AOML_Explorer,Ex0716E,106.189,16042007,4:31:52,25.859,-77.585,373.26,-9.00,1011.23,1008.70,25.63,25.90,36.298,1.549,101.908,32.595,1008.700,99.400,22.700,219.000,7.721,363.44,2,-9.00,9,-9.00,0.04,18.46,294.25,23.42,227.93
AOML_Explorer,Ex0716E,106.191,16042007,4:34:25,25.856,-77.568,373.34,-9.00,1011.36,1008.70,25.64,25.92,36.290,1.543,101.549,32.589,1008.700,100.600,22.700,200.000,6.176,363.78,2,-9.00,9,-9.00,0.04,17.67,286.80,23.28,228.06
AOML_Explorer,Ex0716E,106.192,16042007,4:36:58,25.853,-77.550,373.32,-9.00,1011.28,1008.70,25.66,25.93,36.274,1.569,101.636,32.583,1008.700,100.300,22.700,203.000,5.662,363.58,2,-9.00,9,-9.00,0.04,17.10,286.70,23.27,228.26
AOML_Explorer,Ex0716E,106.194,16042007,4:39:31,25.850,-77.533,373.46,-9.00,1011.19,1008.60,25.67,25.92,36.267,1.558,101.401,32.575,1008.600,100.800,22.700,231.000,5.147,363.24,2,-9.00,9,-9.00,0.04,15.57,295.38,23.18,228.40
AOML_Explorer,Ex0716E,106.196,16042007,4:42:04,25.847,-77.515,373.57,-9.00,1011.18,1008.60,25.69,25.91,36.262,1.537,101.871,32.570,1008.600,100.700,22.800,235.000,6.176,363.08,2,-9.00,9,-9.00,0.04,16.58,300.36,23.26,228.43
AOML_Explorer,Ex0716E,106.198,16042007,4:44:37,25.844,-77.498,373.56,-9.00,1011.19,1008.60,25.69,25.91,36.254,1.537,101.092,32.564,1008.600,102.100,22.800,214.000,5.662,363.04,2,-9.00,9,-9.00,0.04,16.77,292.66,23.32,228.39
AOML_Explorer,Ex0716E,106.199,16042007,4:47:10,25.840,-77.481,373.60,-9.00,1011.23,1008.60,25.69,25.90,36.258,1.559,101.876,32.558,1008.600,107.500,22.800,209.000,3.603,362.88,2,-9.00,9,-9.00,0.04,15.10,294.03,23.13,228.40
AOML_Explorer,Ex0716E,106.201,16042007,4:49:43,25.834,-77.464,373.51,-9.00,1011.14,1008.50,25.68,25.87,36.269,1.546,101.888,32.555,1008.500,108.800,22.900,198.000,4.632,362.38,2,-9.00,9,-9.00,0.04,16.34,293.09,23.2,228.51
AOML_Explorer,Ex0716E,106.203,16042007,4:52:16,25.829,-77.447,373.43,-9.00,1011.07,1008.50,25.68,25.84,36.282,1.567,101.339,32.552,1008.500,107.400,22.900,216.000,3.603,361.98,2,-9.00,9,-9.00,0.03,14.99,295.84,23.31,228.62
AOML_Explorer,Ex0716E,106.205,16042007,4:54:49,25.824,-77.429,373.38,-9.00,1010.78,1008.40,25.66,25.82,36.297,1.573,101.580,32.550,1008.400,107.300,23.000,215.000,6.176,361.67,2,-9.00,9,-9.00,0.04,17.30,298.25,23.36,228.55
AOML_Explorer,Ex0716E,106.207,16042007,4:57:22,25.819,-77.412,373.12,-9.00,1010.80,1008.40,25.64,25.81,36.326,1.551,101.436,32.544,1008.400,107.600,22.900,233.000,5.147,361.60,2,-9.00,9,-9.00,0.04,15.61,302.11,23.44,228.31
AOML_Explorer,Ex0716E,106.208,16042007,4:59:55,25.815,-77.395,372.72,-9.00,1010.74,1008.30,25.61,25.66,36.367,1.571,101.517,32.544,1008.300,107.300,22.900,203.000,5.147,359.48,2,-9.00,9,-9.00,0.04,16.69,293.44,23.5,228.84
AOML_Explorer,Ex0716E,106.223,16042007,5:21:40,25.771,-77.250,367.91,-9.00,1010.83,1008.50,25.16,25.31,36.443,1.542,101.064,32.585,1008.500,109.700,22.800,199.000,7.206,356.70,2,-9.00,9,-9.00,0.04,18.70,296.17,23.36,229.06
AOML_Explorer,Ex0716E,106.225,16042007,5:24:13,25.766,-77.233,367.78,-9.00,1010.84,1008.50,25.17,25.14,36.502,1.529,101.168,32.585,1008.500,109.000,22.900,159.000,5.147,353.92,2,-9.00,9,-9.00,0.04,16.64,282.07,23.36,229.75
AOML_Explorer,Ex0716E,106.227,16042007,5:26:46,25.760,-77.216,368.24,-9.00,1010.81,1008.50,25.17,24.92,36.559,1.566,101.092,32.581,1008.500,108.100,23.000,188.000,6.691,351.14,2,-9.00,9,-9.00,0.04,18.46,290.45,23.35,229.69
AOML_Explorer,Ex0716E,106.229,16042007,5:29:19,25.757,-77.199,368.56,-9.00,1010.68,1008.40,25.12,24.96,36.509,1.567,101.660,32.577,1008.400,99.300,22.900,220.000,7.721,352.83,2,-9.00,9,-9.00,0.04,18.43,293.90,23.42,229.12
AOML_Explorer,Ex0716E,106.230,16042007,5:31:52,25.755,-77.181,368.16,-9.00,1010.76,1008.30,24.95,25.08,36.498,1.552,101.081,32.571,1008.300,92.200,22.700,237.000,5.662,356.70,2,-9.00,9,-9.00,0.04,15.62,289.58,23.5,229.77
AOML_Explorer,Ex0716E,106.232,16042007,5:34:25,25.755,-77.163,366.11,-9.00,1010.57,1008.10,24.84,25.11,36.469,1.577,101.294,32.564,1008.100,91.700,22.800,249.000,8.750,356.79,2,-9.00,9,-9.00,0.04,17.07,299.84,23.56,229.58
AOML_Explorer,Ex0716E,106.234,16042007,5:36:58,25.754,-77.145,365.23,-9.00,1010.59,1008.20,24.92,25.04,36.479,1.551,101.399,32.559,1008.200,92.500,23.000,242.000,7.721,353.75,2,-9.00,9,-9.00,0.04,16.95,295.89,23.5,229.92
AOML_Explorer,Ex0716E,106.236,16042007,5:39:31,25.754,-77.127,366.16,-9.00,1010.60,1008.10,24.97,24.95,36.513,1.563,101.010,32.552,1008.100,92.600,23.100,249.000,7.206,352.63,2,-9.00,9,-9.00,0.04,16.01,297.21,23.49,230.22
AOML_Explorer,Ex0716E,106.238,16042007,5:42:04,25.753,-77.109,367.15,-9.00,1010.55,1008.00,24.95,25.00,36.482,1.542,101.421,32.545,1008.000,92.700,23.000,254.000,7.206,354.45,2,-9.00,9,-9.00,0.04,15.52,298.99,23.48,229.98